Wind_Speed
6 5 5 5 5 6 7 8 9 9 8 7 6 5 3 3 3 2 3 3 5 6 8 8 9 10 10 11 12 12 13 13 13 13 13 13 13 12 12 12 12 12 13 13 14 14 15 14 13
6 4 3 3 4 5 6 7 8 7 6 6 5 5 4 4 3 3 3 4 5 7 7 7 8 9 10 10 10 11 11 11 11 11 11 11 11 11 11 10 11 11 11 11 12 12 13 13 13
7 4 2 0 2 2 5 6 7 6 5 5 4 4 5 4 4 3 3 4 5 6 7 7 7 8 9 9 9 9 9 9 9 10 10 10 10 10 10 10 10 9 9 9 10 10 11 11 11
9 7 5 3 2 1 2 5 5 5 4 4 4 4 4 4 4 4 4 4 5 5 6 6 7 7 8 8 8 8 8 8 9 9 9 9 10 10 10 9 9 8 8 8 8 8 9 9 10
11 10 8 6 4 3 1 3 4 3 4 3 3 4 4 4 5 5 5 5 5 5 6 6 7 7 7 8 8 8 9 9 9 9 9 8 9 9 9 9 9 8 8 8 8 8 8 8 8
14 13 12 9 8 7 5 2 2 2 2 2 2 3 4 4 5 6 6 6 6 7 7 8 8 8 8 8 9 9 10 9 9 9 9 9 9 9 10 9 9 9 8 8 8 8 8 8 8
17 16 14 12 11 9 8 6 3 1 0 1 2 3 4 4 5 6 6 7 7 8 8 9 9 10 10 10 10 11 11 11 10 10 10 10 10 10 10 10 10 10 9 9 9 9 10 9 9
20 19 17 15 13 11 10 8 5 3 1 1 2 4 4 4 5 6 6 7 8 8 9 9 10 11 11 11 11 12 12 11 12 12 12 12 12 12 12 12 12 12 12 11 11 11 12 11 11
21 20 19 17 15 13 12 11 7 4 2 1 1 3 4 5 6 7 8 8 9 9 10 10 11 12 12 13 13 13 13 13 13 13 14 14 14 14 15 15 14 14 14 14 14 14 14 14 14
22 22 20 19 17 15 13 12 9 6 5 4 4 4 5 7 9 10 11 12 12 12 12 13 13 14 15 15 16 16 16 17 16 16 17 17 17 17 18 18 18 18 18 17 17 17 17 17 17
23 23 22 20 19 17 15 13 11 9 8 7 7 7 8 9 12 13 14 15 15 16 16 16 17 18 18 19 20 20 21 21 21 21 20 20 21 21 21 22 22 22 22 22 21 22 22 21 21
23 24 23 22 20 18 17 16 14 13 13 12 11 11 12 14 15 17 18 19 19 20 20 21 22 22 23 23 23 24 25 25 26 26 26 25 25 25 25 25 26 26 26 26 26 26 26 25 25
24 24 23 22 21 20 20 19 18 17 17 17 17 17 18 19 20 21 21 22 23 24 24 25 26 26 27 28 28 29 30 30 31 31 31 31 30 29 29 29 29 30 30 30 30 29 29 29 29
27 25 24 23 23 23 22 22 21 21 23 22 23 24 24 25 25 25 24 25 26 26 27 28 29 29 30 31 32 33 34 35 35 35 34 34 34 33 33 33 33 33 34 34 33 33 32 32 32
30 28 26 26 27 27 26 25 25 25 26 27 28 28 29 29 28 28 27 27 27 28 29 30 30 31 32 33 34 35 36 37 38 37 37 37 38 37 37 37 36 37 37 36 36 35 35 35 34
32 31 30 30 31 30 30 29 28 30 30 30 31 31 31 31 30 29 28 29 29 30 31 31 32 32 33 34 35 35 36 38 38 38 38 37 38 39 40 41 40 39 40 40 39 39 38 38 37
34 34 34 34 34 33 33 32 32 33 33 33 33 33 32 31 30 29 29 30 30 30 32 32 32 32 33 34 35 36 36 37 38 39 38 37 36 37 39 42 42 42 42 43 43 43 42 40 39
33 34 35 35 36 36 35 35 35 35 34 35 34 33 32 30 29 29 30 30 31 32 32 32 33 33 34 35 36 36 35 35 36 37 37 37 37 38 39 40 42 42 43 43 42 41 41 40 40
30 32 33 34 34 35 35 35 34 34 35 34 33 31 30 29 29 29 29 30 32 32 32 33 33 33 34 35 35 35 35 35 36 36 36 36 37 39 39 40 41 43 43 42 41 41 41 40 39
27 29 30 31 31 32 32 33 33 33 33 32 31 30 30 30 30 30 30 30 31 32 32 33 33 34 34 34 35 35 35 35 36 36 37 37 37 38 39 40 41 42 43 43 41 41 41 40 40
24 25 26 28 28 30 31 31 30 31 31 31 31 30 30 31 31 31 31 31 31 32 33 33 33 34 34 35 35 35 35 35 35 36 36 36 37 38 39 39 40 40 41 40 39 39 38 38 37
20 22 24 25 26 27 29 30 29 30 31 32 32 32 31 31 32 31 30 30 30 32 32 33 34 34 34 34 34 34 34 35 35 35 35 35 36 36 37 37 38 38 39 39 38 38 38 38 36
18 19 21 22 23 24 27 30 29 29 31 32 32 31 30 30 30 29 28 28 30 31 32 33 33 33 33 33 34 34 34 35 35 36 36 36 36 36 37 37 37 37 37 37 37 37 37 37 36
16 17 18 19 20 21 24 26 26 27 28 29 29 29 28 27 26 26 26 28 29 30 31 32 32 32 32 32 32 32 33 33 34 35 35 36 36 37 37 38 38 38 38 38 38 37 37 37 36
13 14 15 16 17 18 20 21 21 22 24 24 24 24 24 23 24 25 27 28 28 29 31 32 32 31 30 30 31 31 32 33 33 34 34 35 35 36 37 38 39 39 39 39 38 37 37 37 37
12 13 14 14 14 15 17 18 19 20 21 21 22 22 23 24 25 26 26 27 28 29 30 31 31 32 31 31 32 32 33 33 34 34 34 35 35 35 36 37 38 39 39 40 39 39 38 37 37
12 12 13 14 14 14 15 17 18 20 20 21 21 22 23 24 25 25 27 28 29 29 30 31 31 32 32 33 33 33 34 34 34 34 35 35 36 36 36 36 37 38 39 39 39 39 38 37 37
12 12 14 15 17 16 16 17 18 18 20 21 22 23 24 25 26 28 28 29 30 31 32 33 33 34 35 35 36 36 36 36 35 35 36 36 35 36 35 35 35 36 37 38 39 38 38 37 36
12 13 14 16 18 20 19 20 20 21 22 23 25 26 27 28 29 31 32 33 34 35 36 36 37 37 37 38 38 38 38 38 37 36 36 36 35 35 35 35 34 34 35 36 36 36 37 36 36
13 15 17 19 20 22 24 25 24 25 26 27 29 30 31 32 34 35 36 37 38 39 40 41 41 41 41 41 41 41 40 40 39 38 37 36 36 35 35 34 33 33 32 33 33 34 34 34 34
Wind_Direction
135 122 103 84 80 83 83 85 90 90 88 95 108 115 107 78 67 56 46 34 29 27 23 18 18 20 25 30 34 36 37 38 38 37 36 34 33 33 33 32 30 30 32 34 36 37 38 38 37
159 142 115 73 74 95 95 92 87 77 70 75 85 88 78 66 59 41 33 27 23 20 14 8 9 12 15 19 22 24 26 27 27 27 26 24 23 23 24 23 21 22 25 29 32 33 33 34 34
188 188 185 8 11 94 116 110 99 88 78 66 56 53 53 52 41 27 16 17 18 13 2 355 359 2 4 7 8 9 11 12 12 12 11 10 9 9 10 11 11 12 14 16 19 22 24 26 27
211 219 223 250 310 328 149 135 128 112 90 65 41 26 28 29 16 360 352 357 1 356 344 341 343 348 351 353 354 353 353 353 353 352 353 354 355 356 356 357 359 360 0 2 4 7 12 14 17
222 229 233 250 275 292 247 154 144 116 83 59 32 7 1 357 345 333 330 332 333 327 321 320 324 328 332 336 337 335 333 333 333 333 333 336 339 342 343 343 344 344 344 345 347 350 354 358 360
231 235 239 246 260 265 271 255 195 124 70 37 20 357 343 339 331 323 321 320 316 312 310 309 310 312 316 318 319 320 320 318 317 317 316 318 321 324 326 326 327 326 327 327 328 329 333 338 339
235 239 243 248 257 266 275 279 284 271 72 10 360 348 338 336 329 321 319 317 314 312 311 312 312 311 311 310 309 310 311 309 307 307 306 306 308 310 312 313 312 311 311 312 312 312 314 319 321
235 240 244 248 255 265 277 288 293 288 290 341 353 347 339 342 337 331 327 325 321 318 318 317 316 313 310 308 306 306 305 303 301 300 299 298 299 300 300 301 300 299 300 300 301 301 303 305 307
233 238 242 247 254 263 277 290 287 271 265 276 327 333 329 326 325 324 322 319 316 315 316 315 313 311 308 306 303 301 300 297 295 293 292 291 291 291 291 290 290 290 290 291 292 293 293 294 296
231 235 240 245 253 263 276 288 283 268 261 266 275 289 299 309 311 311 309 307 305 304 304 304 303 303 301 299 297 296 294 292 290 288 287 286 285 285 284 283 283 284 284 284 285 285 286 288 290
233 235 240 243 250 258 269 279 279 274 273 270 272 280 287 293 298 300 300 299 299 298 296 294 293 294 294 292 290 289 288 287 286 283 281 280 279 280 280 280 279 279 279 279 280 281 282 283 284
236 239 243 247 250 255 263 270 277 280 279 280 282 288 291 291 293 296 296 295 295 293 291 290 289 288 287 286 286 286 285 283 281 280 278 276 275 275 275 276 277 276 276 276 276 276 278 279 280
237 241 248 251 254 257 261 267 275 281 282 284 287 289 290 291 292 293 294 293 293 291 290 288 287 287 286 284 283 284 283 282 280 277 275 274 272 272 272 272 273 274 274 273 273 274 275 276 276
239 241 246 250 254 255 258 264 271 277 281 284 287 288 290 291 292 293 293 292 291 290 289 287 286 286 285 284 283 283 283 279 278 275 273 272 269 269 270 269 269 270 271 271 272 273 273 273 273
242 242 244 247 251 254 257 262 268 273 278 281 283 285 287 289 291 293 294 293 293 291 289 288 286 285 285 283 283 282 281 282 281 278 276 272 268 266 267 268 269 269 270 270 271 271 270 270 270
242 243 243 246 250 254 258 263 266 271 274 277 279 282 284 286 290 293 295 294 293 292 291 289 288 287 287 286 285 285 284 285 286 283 282 280 275 271 267 267 267 269 270 270 269 269 269 268 269
240 243 244 247 251 255 258 262 265 269 272 274 276 278 281 284 290 295 296 295 294 293 292 291 291 289 289 289 289 290 287 287 286 285 286 283 279 276 273 270 267 268 270 271 271 270 270 269 269
239 242 245 248 252 256 259 262 264 267 269 271 272 275 278 283 291 296 297 295 293 293 293 293 293 293 293 293 294 294 293 291 290 289 288 286 283 280 277 274 271 270 272 273 272 271 272 272 271
239 242 245 249 252 255 258 260 263 265 266 268 270 273 277 283 290 294 295 293 291 291 292 294 295 297 298 299 299 298 298 295 293 291 288 286 284 281 278 276 274 273 273 273 275 275 275 275 274
239 242 245 248 250 252 255 257 259 261 263 266 269 273 279 284 289 291 292 291 290 291 293 295 298 300 301 302 302 302 301 299 296 293 289 286 284 282 280 279 276 276 274 274 275 275 274 273 275
240 244 246 247 248 251 253 254 257 260 263 267 271 275 279 282 286 288 288 289 290 293 294 296 299 301 302 303 304 304 303 302 300 296 292 288 285 282 281 280 279 277 277 277 276 276 276 275 275
247 250 252 253 253 253 256 257 258 262 266 271 274 278 281 283 284 284 286 286 287 291 294 296 299 302 303 305 306 306 305 304 302 300 297 292 287 283 281 280 279 278 277 277 276 276 275 275 275
259 261 262 262 260 260 259 261 262 264 267 271 275 278 279 280 281 281 282 284 286 290 294 296 299 301 302 304 306 306 306 305 304 302 299 295 290 286 281 279 278 277 276 276 275 275 275 275 275
270 271 270 270 269 267 266 267 268 268 269 271 273 275 277 278 278 278 280 284 287 289 291 293 296 298 300 302 304 306 308 308 307 304 302 298 294 289 284 280 278 277 276 275 275 275 275 275 275
281 281 282 279 276 274 273 274 275 274 273 274 275 276 276 275 276 277 280 282 284 286 288 290 294 297 300 302 305 308 309 310 310 309 306 303 298 293 288 284 279 276 275 275 275 274 274 274 274
287 289 290 290 285 278 278 280 281 280 280 279 279 278 276 275 277 278 279 280 282 284 286 289 293 296 300 303 305 307 309 310 311 311 310 307 303 298 293 287 283 278 276 274 273 273 273 273 273
294 295 296 295 292 286 284 284 282 284 285 286 285 283 281 281 281 281 282 282 283 286 289 292 294 297 300 303 304 306 308 309 309 309 310 309 306 302 298 292 287 282 278 275 273 272 272 272 271
299 299 296 297 298 295 292 289 287 288 290 290 289 287 287 285 284 283 284 287 289 291 293 295 297 299 301 302 303 305 306 308 308 308 310 310 308 305 302 296 291 286 282 277 274 272 272 271 271
304 300 298 297 297 298 298 295 297 297 295 293 290 289 288 287 287 288 289 291 293 294 296 298 299 300 301 302 302 303 304 306 307 307 308 309 308 306 304 300 295 290 286 281 277 274 272 271 271
304 302 300 299 300 300 300 300 300 298 294 292 290 289 288 288 289 290 292 293 295 297 298 299 300 301 301 301 301 301 302 303 304 305 306 307 307 307 305 302 299 295 290 285 281 276 272 271 270
Height
5919 5919 5920 5920 5920 5919 5918 5918 5918 5918 5919 5919 5919 5920 5920 5921 5922 5924 5922 5920 5920 5919 5919 5919 5918 5917 5915 5914 5913 5912 5911 5910 5910 5909 5909 5908 5908 5907 5907 5906 5905 5905 5904 5903 5902 5901 5900 5899 5898
5920 5920 5922 5922 5921 5921 5921 5920 5919 5920 5920 5920 5920 5920 5921 5921 5921 5922 5921 5920 5920 5920 5919 5919 5918 5917 5915 5914 5913 5912 5912 5911 5910 5910 5909 5909 5908 5908 5907 5906 5906 5905 5904 5903 5903 5902 5901 5900 5899
5920 5921 5923 5922 5922 5922 5922 5921 5921 5921 5921 5920 5920 5921 5921 5921 5921 5921 5921 5921 5920 5920 5919 5919 5918 5916 5915 5914 5913 5913 5912 5911 5911 5910 5909 5909 5908 5908 5907 5906 5906 5905 5904 5904 5903 5902 5901 5900 5899
5921 5922 5923 5923 5922 5923 5922 5922 5921 5921 5921 5921 5921 5921 5922 5922 5921 5921 5921 5920 5920 5919 5919 5918 5917 5916 5915 5914 5913 5912 5912 5911 5910 5910 5909 5908 5908 5907 5906 5906 5905 5904 5904 5903 5903 5902 5901 5900 5899
5920 5921 5922 5922 5922 5923 5922 5922 5922 5922 5922 5922 5922 5922 5921 5922 5921 5921 5920 5920 5919 5919 5918 5917 5916 5915 5914 5913 5912 5912 5911 5910 5909 5909 5908 5907 5907 5906 5905 5904 5904 5903 5903 5902 5901 5901 5900 5899 5899
5919 5920 5921 5921 5921 5922 5923 5922 5922 5922 5922 5922 5922 5922 5921 5921 5921 5920 5920 5919 5919 5918 5917 5916 5915 5914 5913 5912 5911 5911 5910 5909 5908 5907 5907 5906 5905 5905 5904 5903 5903 5902 5901 5900 5900 5899 5899 5898 5897
5918 5918 5919 5919 5920 5921 5922 5922 5922 5922 5922 5922 5921 5921 5921 5921 5920 5920 5919 5919 5918 5917 5916 5915 5914 5913 5912 5911 5910 5909 5908 5908 5907 5906 5905 5905 5904 5903 5902 5902 5901 5900 5900 5899 5898 5897 5897 5896 5895
5915 5917 5917 5917 5918 5920 5921 5921 5921 5921 5921 5921 5921 5920 5920 5920 5920 5919 5919 5918 5917 5916 5915 5913 5912 5911 5910 5909 5908 5907 5907 5906 5905 5904 5904 5903 5902 5901 5901 5900 5899 5898 5898 5897 5896 5895 5895 5894 5893
5912 5915 5915 5916 5917 5918 5919 5919 5920 5920 5920 5920 5920 5920 5920 5919 5919 5918 5918 5917 5915 5914 5913 5912 5911 5910 5908 5907 5906 5905 5904 5904 5903 5902 5901 5900 5900 5899 5898 5897 5897 5896 5895 5894 5893 5892 5892 5891 5890
5910 5911 5913 5914 5915 5916 5917 5917 5918 5918 5918 5919 5919 5919 5919 5918 5917 5917 5916 5915 5914 5912 5911 5910 5909 5907 5906 5905 5904 5903 5902 5901 5900 5899 5898 5897 5896 5896 5895 5894 5893 5892 5891 5891 5890 5889 5888 5888 5887
5907 5909 5910 5912 5913 5914 5915 5915 5915 5916 5916 5917 5917 5917 5917 5917 5916 5914 5913 5912 5911 5910 5908 5907 5905 5904 5903 5902 5900 5899 5898 5897 5897 5895 5894 5893 5892 5891 5890 5889 5889 5888 5887 5886 5885 5885 5884 5883 5883
5905 5906 5907 5909 5911 5912 5912 5912 5913 5913 5914 5914 5915 5915 5915 5914 5913 5912 5910 5909 5907 5906 5905 5903 5901 5900 5899 5897 5896 5895 5894 5893 5892 5891 5890 5888 5887 5886 5885 5884 5883 5882 5882 5881 5880 5879 5879 5878 5877
5902 5903 5905 5907 5908 5909 5909 5909 5910 5910 5910 5911 5911 5912 5911 5911 5910 5909 5907 5905 5903 5901 5900 5898 5896 5895 5894 5892 5891 5889 5888 5887 5886 5885 5883 5882 5881 5880 5879 5878 5877 5876 5875 5874 5873 5873 5872 5872 5871
5898 5900 5902 5904 5904 5905 5906 5906 5907 5907 5907 5908 5908 5908 5907 5906 5905 5904 5902 5900 5898 5896 5894 5893 5891 5889 5888 5886 5884 5882 5880 5879 5877 5876 5875 5874 5874 5873 5872 5871 5870 5868 5867 5866 5866 5866 5865 5864 5864
5894 5897 5899 5899 5899 5901 5902 5903 5904 5904 5904 5904 5903 5903 5902 5901 5900 5898 5897 5895 5892 5890 5888 5886 5885 5883 5881 5879 5877 5875 5872 5870 5869 5867 5866 5865 5864 5864 5864 5863 5862 5860 5859 5858 5858 5857 5857 5856 5855
5889 5892 5894 5894 5895 5896 5899 5899 5900 5899 5899 5899 5898 5897 5896 5895 5894 5892 5890 5888 5886 5884 5882 5880 5878 5876 5874 5872 5869 5867 5864 5863 5861 5859 5857 5856 5855 5854 5854 5854 5853 5852 5850 5850 5849 5848 5848 5847 5847
5883 5885 5887 5889 5890 5891 5893 5894 5894 5894 5894 5893 5892 5891 5890 5889 5888 5886 5884 5882 5880 5878 5876 5873 5871 5869 5866 5864 5862 5859 5857 5856 5853 5851 5849 5847 5846 5844 5844 5844 5843 5842 5841 5840 5840 5839 5838 5838 5838
5877 5879 5881 5883 5884 5885 5886 5887 5888 5888 5888 5887 5886 5885 5884 5883 5882 5880 5878 5876 5873 5871 5869 5867 5865 5862 5860 5857 5854 5852 5850 5848 5846 5844 5842 5840 5838 5836 5835 5834 5834 5833 5832 5831 5830 5829 5828 5828 5827
5872 5874 5875 5877 5879 5880 5880 5881 5881 5881 5881 5880 5880 5879 5878 5877 5876 5874 5872 5870 5867 5865 5862 5860 5857 5855 5852 5850 5847 5844 5842 5840 5838 5836 5833 5832 5830 5828 5826 5825 5824 5823 5823 5822 5821 5819 5819 5819 5818
5867 5869 5870 5872 5873 5874 5874 5875 5875 5875 5874 5874 5874 5873 5873 5872 5870 5869 5866 5864 5861 5858 5856 5853 5850 5847 5845 5842 5840 5837 5835 5832 5830 5827 5825 5823 5821 5819 5817 5815 5814 5813 5812 5812 5811 5810 5810 5810 5809
5864 5865 5866 5867 5868 5868 5869 5869 5869 5869 5868 5868 5868 5868 5867 5866 5864 5862 5860 5858 5855 5852 5850 5847 5844 5841 5838 5835 5833 5830 5827 5824 5822 5819 5816 5814 5812 5810 5808 5806 5805 5804 5803 5802 5802 5801 5800 5800 5800
5861 5862 5862 5863 5864 5864 5864 5864 5865 5864 5863 5863 5862 5862 5861 5860 5858 5856 5854 5852 5849 5846 5843 5840 5837 5834 5831 5828 5825 5823 5819 5816 5813 5810 5807 5804 5802 5800 5798 5796 5795 5794 5793 5792 5792 5791 5791 5790 5791
5859 5859 5859 5859 5859 5859 5859 5858 5860 5859 5858 5857 5857 5856 5855 5854 5852 5851 5848 5846 5843 5840 5837 5834 5831 5828 5825 5822 5819 5815 5812 5808 5805 5801 5798 5795 5793 5790 5788 5787 5785 5784 5783 5782 5782 5782 5781 5781 5781
5856 5856 5856 5855 5855 5855 5854 5854 5854 5854 5853 5852 5852 5851 5850 5848 5847 5845 5843 5840 5837 5834 5831 5828 5825 5822 5819 5816 5812 5808 5804 5800 5797 5793 5789 5786 5783 5780 5778 5776 5775 5774 5773 5772 5772 5771 5771 5771 5771
5854 5854 5853 5852 5851 5851 5850 5850 5850 5848 5848 5847 5847 5846 5844 5843 5841 5839 5837 5834 5831 5828 5825 5821 5818 5815 5812 5808 5805 5801 5797 5793 5789 5785 5781 5777 5774 5771 5768 5766 5764 5763 5762 5762 5761 5761 5761 5760 5760
5852 5852 5851 5850 5849 5848 5847 5846 5846 5844 5843 5843 5842 5840 5838 5836 5835 5833 5830 5827 5824 5821 5818 5815 5811 5808 5804 5801 5797 5793 5789 5785 5781 5777 5773 5769 5765 5762 5759 5756 5754 5752 5751 5751 5750 5750 5750 5750 5749
5849 5849 5848 5847 5846 5845 5844 5843 5842 5840 5839 5838 5836 5834 5833 5830 5828 5825 5822 5819 5817 5814 5810 5807 5804 5800 5796 5792 5789 5785 5781 5777 5773 5769 5765 5760 5756 5752 5749 5746 5744 5742 5740 5739 5739 5739 5738 5738 5738
5847 5846 5845 5843 5842 5840 5840 5839 5838 5836 5835 5833 5830 5828 5825 5823 5820 5817 5814 5811 5808 5805 5802 5798 5795 5791 5787 5784 5780 5776 5773 5769 5765 5761 5756 5752 5747 5743 5740 5736 5734 5731 5729 5728 5727 5727 5727 5727 5727
5845 5843 5841 5840 5838 5836 5834 5835 5833 5831 5829 5826 5823 5820 5817 5814 5811 5808 5805 5802 5799 5795 5792 5789 5785 5782 5778 5774 5771 5767 5764 5760 5756 5752 5748 5743 5739 5735 5731 5727 5724 5721 5719 5717 5716 5715 5715 5715 5715
5841 5840 5838 5836 5834 5831 5829 5829 5826 5823 5821 5818 5815 5812 5809 5805 5802 5799 5795 5792 5789 5785 5782 5778 5775 5772 5768 5765 5761 5758 5754 5751 5747 5743 5739 5735 5731 5727 5723 5719 5715 5712 5709 5707 5705 5704 5704 5704 5704